Content
SEND FEEDBACK

Daily
Averages
Monthly
Summary
United States of America

BARTON HILLS, MICHIGAN


Home > North America > United States > Michigan
Elevation: 899 feet     Latitude: 42 18N     Longitude: 083 43W

WEATHER
 
SELECT A DAY
Number of Records: 208,905;   Date Range: 1/1/95 - 12/19/14
 
SHARE

PRINT THIS DATA

[ ← Previous Day ]
WEATHER ALMANAC - OCTOBER 22, 2013
[ Next Day → ]
[ °C ]   °F
Weather ElementAverageHighLow
Temperature39.5 °F48.9 °F (2:53 pm)28 °F (7:53 am)
Dewpoint29 °F34 °F (11:53 pm)25 °F (7:53 am)
Humidity67.7 %89 % (8:53 am)46 % (2:53 pm)
Barometer29.90 in29.94 in (8:53 am)29.86 in (1:23 am)
Wind Speed7.8 mph17.3 mph (11:53 am)
Wind Gust25.3 mph (11:53 am)
Weather ElementAverage
Visibility10 mi
Wind DirectionWSW (244 °)

Weather ElementTotal
Precipitation---
Heating Degree Days26.6 (Base 65)
Averaged from 25 records on October 22, 2013
WEATHER CONDITIONS BREAKOUT
WIND DIRECTION BREAKOUT
WEATHER BY HOUR - OCTOBER 22, 2013
[ °C ]   °F
Local TimeTemperatureDewpointHumidityBarometerVisibilityWind DirectionWind SpeedGust SpeedPrecipitationEventsConditions
1:23 AM42.8 °F30.2 °F61 %29.86 in10.0 miWNW (300°)12.7 mph20.7 mphOvercast
1:36 AM41.0 °F30.2 °F65 %29.87 in10.0 miNW (310°)13.8 mph21.9 mphOvercast
1:53 AM41.0 °F28.0 °F60 %29.88 in10.0 miWNW (300°)10.4 mphOvercast
2:53 AM37.9 °F27.0 °F65 %29.89 in10.0 miWNW (300°)4.6 mphScattered Clouds
3:53 AM30.0 °F27.0 °F88 %29.90 in10.0 miSW (230°)4.6 mphClear
4:53 AM30.9 °F27.0 °F85 %29.90 in10.0 miWSW (240°)3.5 mphClear
5:53 AM30.9 °F27.0 °F85 %29.91 in10.0 miWSW (240°)3.5 mphClear
6:53 AM30.0 °F26.1 °F85 %29.92 in10.0 miWSW (240°)4.6 mphPartly Cloudy
7:53 AM28.0 °F25.0 °F88 %29.92 in10.0 miCalmPartly Cloudy
8:53 AM30.9 °F28.0 °F89 %29.94 in10.0 miSW (230°)4.6 mphClear
9:53 AM36.0 °F28.9 °F76 %29.94 in10.0 miWSW (240°)10.4 mphClear
10:53 AM39.9 °F30.9 °F70 %29.94 in10.0 miWSW (240°)10.4 mphClear
11:53 AM44.1 °F30.0 °F58 %29.93 in10.0 miWest (280°)17.3 mph25.3 mphMostly Cloudy
12:53 PM45.0 °F28.9 °F53 %29.93 in10.0 miWNW (290°)12.7 mphMostly Cloudy
1:53 PM46.0 °F28.9 °F51 %29.91 in10.0 miWest (280°)11.5 mphMostly Cloudy
2:53 PM48.9 °F28.9 °F46 %29.88 in10.0 miWest (280°)9.2 mphMostly Cloudy
3:53 PM48.0 °F28.0 °F46 %29.88 in10.0 miWest (270°)12.7 mphMostly Cloudy
4:53 PM48.0 °F28.0 °F46 %29.88 in10.0 miWest (270°)8.1 mphMostly Cloudy
5:53 PM46.0 °F28.9 °F51 %29.89 in10.0 miWSW (250°)8.1 mphMostly Cloudy
6:53 PM44.1 °F30.0 °F58 %29.89 in10.0 miWSW (250°)5.8 mphOvercast
7:53 PM42.1 °F28.9 °F60 %29.89 in10.0 miWest (270°)5.8 mphOvercast
8:53 PM39.0 °F30.0 °F70 %29.90 in10.0 miCalmOvercast
9:53 PM39.0 °F30.9 °F73 %29.90 in10.0 miWest (280°)4.6 mphOvercast
10:53 PM39.9 °F33.1 °F77 %29.90 in10.0 miWest (260°)8.1 mphOvercast
11:53 PM37.9 °F34.0 °F86 %29.90 in10.0 miWSW (250°)6.9 mphMostly Cloudy
Hourly data recorded from KARB, located miles away from Barton Hills, Michigan







STORIES FROM OUR PARTNERS